Wetbulb
46.07 48.09 48.21 47.45 47.70 49.33 47.08 46.72 42.75 50.79 51.33 54.08 58.35 59.49 58.36 65.57 66.18 67.40 67.18 67.78 68.41 70.16 72.61 73.83 74.08 74.28 74.48 74.71 74.45 74.21 72.94 72.27 72.17 71.37 71.19 70.59 69.75 69.16 68.97 68.16 67.47 66.46 66.19 62.56
45.05 49.08 48.44 47.26 49.03 48.85 49.30 50.10 48.95 52.24 52.52 57.55 59.24 60.88 59.62 65.57 66.44 66.58 67.21 67.49 69.92 71.58 72.45 73.73 74.18 74.37 74.36 73.78 73.65 73.00 71.86 70.52 71.33 70.64 69.74 69.45 69.12 68.58 67.73 67.21 66.83 66.14 64.26 57.32
40.57 47.22 46.71 43.87 47.53 48.24 48.44 48.57 49.51 46.48 50.40 58.41 57.33 56.78 58.34 64.61 66.89 67.28 67.74 67.84 69.84 71.61 71.82 73.72 74.20 74.56 73.52 72.63 72.22 71.44 70.64 70.98 70.27 69.64 69.36 68.88 68.72 68.34 66.74 66.73 64.06 61.91 60.98 57.67
44.34 46.02 38.51 47.59 50.98 51.55 50.37 50.97 51.10 51.21 52.97 57.59 57.67 57.99 63.96 65.01 66.32 67.81 68.35 68.11 69.73 71.87 72.19 74.03 74.78 74.11 72.47 72.15 71.57 71.46 70.58 70.02 69.66 69.33 68.28 67.88 67.76 67.12 65.70 64.36 62.95 60.55 58.06 58.59
43.11 43.30 47.73 49.86 56.11 56.27 53.42 49.97 57.16 57.19 55.32 58.03 58.95 63.22 62.25 65.62 65.94 66.38 69.29 69.43 69.63 72.59 72.65 74.24 74.18 73.09 71.42 71.35 71.24 70.52 69.66 69.48 69.07 67.20 67.49 67.26 66.64 65.63 63.36 60.67 59.21 58.23 57.99 57.55
46.21 42.99 42.03 51.43 56.98 60.30 59.47 49.53 58.86 60.77 61.32 59.07 59.42 56.88 58.88 63.82 65.83 65.75 69.11 70.94 70.43 72.68 73.32 73.52 73.41 71.86 70.71 70.77 70.49 69.38 69.57 69.55 68.95 67.77 67.80 66.55 65.05 61.59 60.62 59.46 58.23 59.21 57.60 57.88
46.10 45.21 50.26 55.88 59.31 60.90 49.38 51.94 58.70 58.65 60.97 62.33 59.65 60.74 63.07 66.98 67.10 67.22 66.18 70.16 71.88 72.96 72.83 73.00 71.64 70.57 69.92 70.26 69.58 69.97 69.93 68.62 67.37 67.10 66.30 64.86 61.93 60.09 59.20 59.32 57.64 56.66 56.38 57.50
48.34 46.28 45.21 57.30 58.23 53.10 55.26 58.82 58.94 57.64 58.40 60.86 62.93 64.63 64.90 66.29 66.16 67.11 67.99 69.89 72.37 71.49 72.45 71.36 70.91 70.08 69.42 68.90 70.18 69.40 68.27 66.61 66.29 65.87 64.54 61.98 60.44 60.01 59.00 58.38 57.16 56.30 56.00 56.48
49.04 50.03 55.84 58.03 57.02 59.72 59.18 58.83 60.43 59.27 59.97 60.11 63.45 63.97 65.75 65.91 65.88 67.00 68.30 70.52 72.15 71.58 71.09 70.09 70.29 70.25 69.09 69.01 68.96 67.74 66.89 65.83 65.44 63.29 61.89 61.78 60.35 59.71 58.95 59.01 56.85 57.06 57.61 56.28
50.69 55.23 54.95 57.59 59.44 60.51 62.09 60.44 60.54 60.77 60.64 62.89 62.15 64.00 65.65 65.40 66.61 67.17 68.77 70.51 71.74 71.11 69.43 67.87 69.29 70.16 69.07 68.85 68.34 67.38 65.61 65.01 62.95 60.99 60.66 60.87 61.03 60.44 59.30 58.06 55.43 49.28 49.24 48.65
50.53 53.06 54.70 57.69 59.58 60.58 61.78 62.21 62.92 63.32 64.16 64.41 63.74 63.33 63.98 64.50 67.84 69.81 71.93 71.73 71.57 70.13 68.05 68.41 69.01 68.43 68.20 67.80 67.10 65.62 64.61 62.92 61.11 60.05 59.23 59.16 55.54 57.15 52.84 51.21 50.37 48.08 47.66 48.04
49.03 54.46 54.73 56.53 61.46 62.21 59.90 59.94 61.73 63.55 63.98 65.04 65.21 64.23 65.41 69.27 71.75 72.33 72.37 71.14 69.79 68.86 68.25 67.64 67.17 66.29 66.43 65.70 64.37 65.75 63.57 62.04 60.34 59.11 58.20 59.19 54.11 51.66 50.62 49.09 48.12 48.24 48.30 47.92
54.60 57.23 58.19 59.88 62.99 62.44 60.28 61.28 62.03 62.37 64.08 64.17 64.77 64.71 64.49 69.86 70.25 67.23 68.09 69.22 67.73 67.46 67.28 67.04 66.34 63.79 62.63 63.61 64.47 64.98 63.88 61.67 60.13 58.60 57.16 58.26 57.72 53.04 49.12 48.40 48.20 46.42 46.45 47.04
58.34 57.98 57.22 59.52 58.39 62.99 62.62 63.06 62.87 63.71 64.28 63.73 64.24 65.68 66.93 68.99 68.40 67.08 66.27 67.82 67.42 67.24 66.65 66.52 65.72 63.01 63.72 65.06 65.60 64.25 62.35 57.91 59.65 57.98 56.88 56.38 55.33 52.96 52.05 49.59 47.54 47.37 48.09 46.01
59.82 59.55 57.88 58.51 59.22 59.17 60.89 61.35 60.93 60.28 61.98 62.90 64.33 65.43 68.59 67.50 65.33 64.81 65.32 66.20 67.51 67.24 66.47 66.45 64.63 64.71 66.00 65.39 63.70 62.13 60.79 60.38 58.83 56.14 56.57 55.98 55.13 54.77 53.98 52.36 51.37 51.58 51.05 48.73
60.03 60.38 60.03 59.85 59.99 60.93 61.27 61.04 61.00 61.80 62.50 63.27 67.12 67.35 66.67 66.41 65.42 65.06 65.78 65.66 65.04 64.60 65.13 65.07 64.73 64.60 65.04 64.30 62.40 61.72 59.72 58.68 56.30 56.53 55.43 54.26 52.59 52.02 51.59 51.78 50.83 49.91 51.02 51.23
57.63 57.79 59.76 60.04 60.87 61.12 60.66 61.04 60.76 62.94 64.30 67.14 66.22 65.83 64.76 63.83 62.96 64.02 64.02 64.97 64.34 63.87 64.08 64.24 63.87 64.71 64.12 61.22 59.51 56.73 55.41 55.10 57.13 54.17 53.85 52.15 51.77 51.98 51.21 49.50 49.14 49.61 49.64 50.75
62.42 62.68 61.90 62.05 62.22 62.67 62.74 63.60 63.51 63.91 66.60 67.68 66.67 64.61 64.23 62.28 61.31 62.17 62.10 62.37 63.08 62.85 62.88 63.46 63.31 62.23 60.01 58.51 57.57 57.47 54.50 53.65 52.63 54.73 52.56 51.00 51.39 50.22 49.91 50.70 49.90 49.70 49.79 50.62
63.67 63.77 64.27 64.92 64.53 64.22 63.90 64.06 64.51 67.55 63.68 66.11 65.34 63.67 62.86 62.13 62.11 61.20 60.08 58.76 57.76 56.82 57.76 60.22 61.03 60.78 58.52 58.40 55.57 53.33 53.53 53.57 54.06 51.80 49.54 50.17 48.66 49.99 50.72 50.06 49.60 50.27 51.02 52.05
64.27 65.25 65.57 65.73 65.91 65.16 64.67 64.84 65.68 66.98 61.71 65.35 63.44 62.46 61.03 59.93 59.13 57.68 57.07 55.20 55.44 56.18 57.14 57.92 57.80 56.77 55.99 58.51 57.02 53.31 53.94 53.05 51.95 50.22 50.83 50.20 50.18 50.35 50.64 49.99 50.53 51.12 51.58 52.94
63.89 64.56 66.02 65.51 64.65 64.64 65.59 65.05 67.17 67.62 66.58 66.29 63.85 62.20 60.04 59.33 57.83 56.80 54.99 53.77 55.09 56.74 57.35 57.68 57.41 57.47 57.58 57.73 57.07 55.27 53.92 52.64 51.67 50.68 50.11 50.08 50.01 51.01 51.48 52.20 52.57 53.29 54.85 55.28
63.94 63.94 64.53 65.49 65.70 64.16 64.59 64.77 69.12 68.55 66.86 65.36 64.34 62.04 59.39 58.04 57.55 57.70 57.07 55.27 55.94 54.97 56.57 56.22 56.53 57.18 56.62 59.23 56.13 55.07 55.34 53.37 52.06 50.08 49.54 51.45 51.29 51.73 52.47 52.55 53.07 53.79 55.29 55.97
64.30 64.17 64.58 65.00 64.40 65.50 65.73 67.85 68.89 68.42 67.12 66.19 65.10 62.95 60.78 60.17 60.12 56.67 54.23 54.79 54.70 54.16 55.35 56.14 55.85 56.23 56.88 56.92 54.76 54.91 56.26 53.22 52.20 51.99 52.00 51.89 53.70 53.06 52.65 52.72 53.63 55.04 55.35 54.52
64.34 64.01 64.05 65.08 65.18 65.09 64.73 65.15 68.57 68.56 67.81 67.58 66.27 64.34 62.40 60.24 60.26 59.48 58.57 55.07 54.10 53.77 55.35 55.93 56.12 55.91 55.40 54.78 54.23 55.15 54.04 52.83 52.08 53.60 53.98 51.56 53.04 53.11 53.33 54.52 54.38 56.18 57.34 55.22
64.66 64.27 64.09 63.47 63.31 63.83 65.39 66.75 67.47 67.44 67.22 67.42 66.38 65.48 63.53 63.01 61.28 61.14 59.28 58.29 53.77 54.55 55.72 54.10 54.74 54.74 53.67 54.33 55.52 54.03 52.94 52.65 53.76 54.84 53.58 52.86 53.27 54.84 54.23 55.16 56.10 55.75 54.80 57.42
64.66 63.93 64.15 65.16 64.73 64.90 65.09 64.56 64.18 65.03 66.32 65.74 65.74 65.45 64.27 63.55 63.16 61.60 59.99 57.31 56.28 54.80 56.69 54.62 54.04 53.33 53.74 54.38 55.82 53.43 52.86 52.59 52.25 53.86 53.86 54.58 54.71 54.34 56.27 56.34 55.62 56.91 55.95 55.91
65.55 59.63 64.87 64.01 64.30 64.95 64.50 63.68 62.59 60.01 58.93 59.98 62.67 64.81 64.10 63.05 62.36 61.36 58.26 58.49 56.79 56.10 56.72 55.23 54.87 54.02 54.15 54.62 54.60 53.06 52.93 53.41 52.83 53.79 53.99 53.77 54.39 55.49 56.09 58.33 56.77 57.33 57.06 55.11
MSLP
999.08 998.48 997.55 997.00 996.54 996.36 996.94 997.55 998.87 1000.41 1000.11 1000.24 1000.15 1000.41 999.69 999.21 999.36 999.58 1000.28 1001.07 1001.61 1002.18 1002.95 1003.65 1004.23 1004.76 1005.33 1005.94 1006.62 1007.36 1008.38 1009.23 1009.79 1010.15 1010.60 1011.26 1011.94 1012.51 1012.93 1013.21 1013.59 1013.80 1014.00 1014.35
999.77 998.85 997.92 997.23 996.35 995.95 996.03 996.30 997.01 998.62 998.80 997.85 997.79 997.94 997.56 998.29 998.52 999.29 999.92 1000.55 1001.34 1002.04 1002.80 1003.55 1004.27 1005.01 1005.63 1006.29 1006.92 1007.53 1008.48 1009.29 1009.83 1010.31 1010.88 1011.59 1012.11 1012.52 1013.00 1013.40 1013.63 1013.99 1014.32 1014.62
1000.96 999.81 998.82 997.97 996.64 995.98 995.87 995.79 996.10 996.54 996.41 996.44 997.19 997.12 996.66 997.43 997.76 998.36 999.08 999.61 1000.47 1001.26 1001.99 1002.86 1003.76 1004.56 1005.54 1006.31 1007.08 1007.99 1008.84 1009.47 1010.05 1010.55 1011.15 1011.89 1012.39 1012.80 1013.25 1013.71 1014.02 1014.35 1014.57 1014.81
1002.47 1001.52 1000.14 998.01 996.63 996.17 996.14 995.96 995.86 995.90 995.55 996.18 996.21 996.68 996.16 996.18 997.00 997.77 998.48 998.90 999.46 1000.38 1001.31 1002.25 1003.16 1004.21 1005.26 1006.17 1007.16 1008.19 1009.14 1009.82 1010.42 1010.91 1011.51 1012.11 1012.49 1013.10 1013.54 1013.98 1014.40 1014.66 1014.83 1015.11
1003.32 1002.91 1000.99 998.77 999.41 999.13 998.76 998.21 998.81 997.69 995.66 995.33 995.63 995.53 996.68 996.70 996.99 997.35 997.61 998.08 998.76 999.57 1000.71 1001.77 1002.81 1004.03 1005.25 1006.42 1007.45 1008.50 1009.26 1009.71 1010.25 1010.67 1011.39 1011.93 1012.50 1013.16 1013.60 1013.92 1014.29 1014.54 1014.62 1014.96
1003.84 1003.97 1003.29 1003.44 1001.07 998.97 998.31 1000.05 1000.43 998.95 997.80 996.59 996.06 997.20 997.37 996.71 996.56 996.73 997.43 997.69 998.50 999.37 1000.38 1001.50 1002.61 1003.75 1005.23 1006.46 1007.43 1008.54 1009.27 1009.87 1010.37 1010.72 1011.42 1012.12 1012.79 1013.26 1013.42 1013.97 1014.21 1014.28 1014.55 1014.84
1005.64 1006.20 1004.13 1003.76 1001.35 998.86 1000.18 1004.38 1002.70 1001.58 999.51 998.41 997.75 997.67 997.26 996.88 996.98 996.97 997.00 997.64 998.19 999.06 1000.03 1001.17 1002.43 1003.70 1005.08 1006.34 1007.47 1008.17 1008.86 1009.50 1010.04 1010.47 1011.27 1012.12 1013.01 1013.55 1013.74 1013.88 1014.33 1014.36 1014.29 1014.52
1007.71 1008.10 1007.05 1004.71 1003.10 1003.68 1004.73 1004.27 1003.71 1001.91 1000.79 999.88 998.39 998.11 997.78 997.25 997.05 996.96 996.85 996.86 998.43 999.42 1000.37 1001.28 1002.26 1003.44 1004.85 1006.01 1006.93 1007.91 1009.02 1009.86 1010.56 1011.20 1011.78 1012.42 1012.96 1013.49 1013.85 1014.14 1014.35 1014.50 1014.41 1014.67
1007.83 1006.77 1005.72 1005.07 1005.57 1005.37 1004.55 1004.59 1003.19 1002.33 1000.94 1000.15 998.53 998.72 998.48 998.13 997.61 997.50 997.59 997.96 998.76 999.75 1001.02 1002.07 1002.66 1003.21 1004.74 1006.16 1006.88 1007.94 1009.11 1009.95 1010.52 1011.13 1011.47 1011.89 1011.70 1013.09 1013.68 1014.16 1014.63 1014.77 1014.62 1014.88
1008.00 1006.77 1005.82 1005.63 1005.30 1004.32 1004.48 1004.07 1002.73 1001.13 1000.58 999.37 999.02 998.77 999.25 998.93 998.52 998.28 998.33 998.62 999.37 1000.35 1001.82 1003.24 1004.40 1005.08 1005.01 1007.05 1007.43 1008.28 1009.68 1010.39 1010.63 1011.28 1011.78 1012.08 1012.61 1013.28 1013.86 1013.81 1014.68 1015.07 1015.04 1015.40
1006.15 1005.50 1005.21 1004.23 1003.55 1003.94 1003.83 1003.37 1002.93 1002.32 1000.50 1000.16 999.72 999.33 999.44 999.52 999.58 999.29 999.15 999.65 999.79 1001.10 1003.11 1004.47 1005.21 1006.26 1006.72 1006.33 1007.92 1007.55 1009.45 1010.96 1011.79 1012.18 1012.18 1012.34 1013.34 1013.63 1013.78 1013.68 1014.03 1014.44 1014.70 1014.88
1004.89 1003.81 1003.72 1003.40 1002.75 1003.22 1003.01 1002.73 1002.33 1001.67 1000.03 1000.30 1000.37 1000.04 999.81 1000.03 1000.23 1000.21 1000.55 1001.11 1002.00 1002.10 1003.06 1004.15 1004.88 1005.21 1006.07 1006.18 1006.07 1008.07 1010.15 1010.27 1010.72 1011.23 1012.13 1012.63 1013.50 1013.93 1014.06 1013.84 1013.79 1014.07 1014.27 1014.41
1002.73 1002.13 1002.62 1001.81 1002.33 1001.60 1002.08 1001.72 1001.74 1000.71 1000.08 1000.25 1000.20 1000.08 1000.09 1000.57 1001.03 1001.23 1001.86 1002.56 1002.69 1003.17 1003.33 1004.11 1004.69 1005.07 1005.23 1006.23 1006.36 1007.76 1009.11 1010.12 1010.75 1011.25 1011.91 1012.50 1013.14 1013.58 1014.24 1014.28 1014.08 1014.16 1014.40 1014.40
1001.56 1001.59 1001.86 1001.42 1001.26 1000.75 1000.97 1000.63 1000.33 999.84 999.27 999.35 999.67 999.65 1000.08 1001.12 1001.65 1002.34 1003.03 1003.38 1003.65 1004.08 1004.44 1004.63 1004.99 1005.49 1005.88 1006.08 1007.07 1008.05 1008.61 1009.67 1010.45 1011.09 1011.53 1012.09 1012.54 1012.93 1013.49 1014.02 1014.14 1014.05 1013.97 1013.89
1000.19 999.91 999.51 999.43 999.38 999.33 999.39 999.33 999.28 999.23 999.23 999.31 999.21 999.72 1000.48 1001.69 1002.59 1003.30 1003.77 1003.83 1003.99 1004.15 1004.42 1004.89 1005.81 1006.05 1006.29 1006.61 1007.16 1007.77 1008.70 1009.60 1010.41 1010.91 1011.36 1011.66 1012.19 1012.57 1012.95 1013.23 1013.52 1013.53 1013.54 1013.50
999.46 999.20 998.94 999.06 999.10 998.75 998.73 998.99 999.20 999.22 999.10 999.23 1000.13 1001.02 1001.85 1002.24 1002.88 1003.56 1004.02 1004.21 1004.33 1004.51 1004.82 1005.28 1005.91 1006.33 1006.64 1006.84 1007.29 1007.99 1008.96 1009.68 1010.33 1010.81 1011.12 1011.33 1011.77 1012.12 1012.43 1012.62 1012.89 1012.98 1013.05 1012.95
998.94 999.09 998.96 999.11 999.25 999.24 998.93 998.93 999.09 999.09 998.82 999.68 1000.75 1001.47 1002.11 1003.01 1003.68 1003.94 1004.41 1004.55 1004.97 1005.33 1005.33 1005.45 1005.95 1006.29 1006.62 1006.85 1007.50 1008.20 1008.92 1009.69 1010.32 1010.68 1010.86 1011.23 1011.55 1011.92 1012.42 1012.37 1012.40 1012.49 1012.55 1012.23
998.05 998.20 998.50 998.76 998.89 998.98 998.85 998.87 999.40 999.67 999.90 1000.90 1001.19 1001.96 1002.43 1003.02 1004.04 1004.61 1004.99 1005.30 1005.68 1005.98 1006.06 1006.00 1006.26 1006.47 1006.69 1007.19 1007.62 1008.29 1008.96 1009.67 1010.09 1010.55 1010.84 1011.35 1011.68 1011.93 1011.96 1011.96 1012.03 1012.27 1012.23 1011.90
997.61 997.85 998.00 998.25 998.33 998.36 998.48 998.55 999.38 999.99 1001.07 1001.99 1001.93 1002.39 1003.70 1004.09 1004.11 1005.01 1005.66 1006.19 1006.47 1006.69 1006.94 1006.69 1007.03 1007.24 1007.40 1007.53 1007.82 1008.32 1008.79 1009.34 1009.87 1010.60 1010.97 1011.12 1011.33 1011.64 1011.97 1011.90 1011.80 1011.84 1011.81 1011.78
997.55 997.57 997.63 997.86 997.59 997.62 997.77 997.73 998.35 999.40 999.88 1001.88 1002.26 1003.16 1004.30 1004.58 1004.91 1005.73 1006.32 1006.89 1007.12 1007.08 1007.16 1007.20 1007.35 1007.67 1007.77 1008.09 1008.09 1008.62 1009.02 1009.27 1010.13 1010.53 1010.92 1011.19 1011.38 1011.60 1011.64 1011.60 1011.63 1011.59 1011.57 1011.39
997.23 997.27 997.27 997.13 996.72 996.53 996.69 996.84 997.61 999.01 1000.03 1000.48 1001.53 1002.65 1003.59 1004.29 1004.95 1005.64 1006.27 1006.96 1007.51 1007.43 1007.42 1007.71 1007.84 1008.26 1008.67 1008.97 1008.74 1009.32 1009.55 1009.39 1009.98 1010.42 1010.87 1011.23 1011.27 1011.20 1011.38 1011.52 1011.48 1011.40 1011.20 1011.14
996.82 996.79 996.79 996.68 996.55 996.41 996.27 996.50 997.14 997.88 999.24 1000.09 1001.01 1001.84 1002.85 1004.00 1004.78 1005.39 1005.80 1006.13 1007.07 1007.40 1007.74 1008.09 1008.37 1008.89 1009.04 1009.00 1009.07 1009.27 1009.45 1009.28 1009.75 1010.15 1010.66 1011.04 1011.00 1011.12 1011.31 1011.29 1011.38 1011.20 1011.03 1010.94
996.64 996.58 996.64 996.60 996.58 996.50 996.41 996.70 997.29 997.79 998.98 1000.02 1000.76 1001.87 1002.69 1003.64 1004.37 1005.28 1006.19 1006.88 1007.07 1007.24 1007.37 1007.78 1008.06 1008.48 1009.02 1009.03 1008.79 1009.14 1009.29 1009.22 1009.58 1010.01 1010.46 1010.78 1010.92 1010.86 1011.04 1011.25 1011.25 1011.03 1010.94 1010.87
996.67 996.68 996.70 996.62 996.72 996.82 997.06 997.21 997.59 997.92 998.69 999.55 1000.33 1001.51 1002.17 1003.12 1004.01 1004.64 1005.17 1006.18 1006.91 1007.52 1007.68 1007.77 1007.98 1008.40 1008.66 1008.78 1008.88 1008.96 1008.86 1009.12 1009.48 1009.81 1010.34 1010.59 1010.56 1010.61 1010.90 1010.91 1010.92 1010.65 1010.52 1010.76
996.94 996.90 996.83 996.95 997.11 997.32 997.33 997.29 997.20 997.38 998.45 999.40 1000.09 1000.91 1001.83 1002.11 1002.69 1003.86 1004.76 1005.53 1006.51 1007.20 1007.39 1007.78 1007.98 1008.05 1008.31 1008.37 1008.59 1008.92 1008.89 1009.05 1009.33 1009.77 1010.19 1010.38 1010.50 1010.66 1010.58 1010.47 1010.43 1010.52 1010.61 1010.47
997.11 997.12 997.13 997.13 997.30 997.39 997.58 997.76 997.89 998.35 998.47 999.11 1000.02 1000.21 1001.35 1001.85 1002.34 1002.96 1004.09 1005.23 1006.13 1006.60 1006.92 1007.31 1007.75 1007.98 1007.99 1008.06 1008.34 1008.54 1008.78 1009.07 1009.33 1009.61 1009.87 1010.11 1010.22 1010.16 1010.15 1010.20 1010.18 1010.16 1010.24 1010.45
996.87 996.99 997.23 997.45 997.64 997.65 997.74 997.97 998.61 999.63 999.73 1000.37 1002.17 1001.13 1000.50 1001.01 1002.04 1002.59 1003.49 1004.46 1005.62 1006.26 1006.47 1006.90 1007.36 1007.65 1007.68 1007.82 1008.19 1008.27 1008.60 1008.94 1009.17 1009.41 1009.61 1009.77 1009.85 1009.87 1009.87 1009.74 1009.73 1009.83 1010.14 1010.47
Wind_Speed
10 10 10 11 10 10 9 9 5 9 13 14 13 20 11 8 9 12 10 9 7 8 10 10 10 10 10 11 12 12 11 8 7 7 9 10 10 8 7 7 6 5 5 7
8 11 13 12 13 12 7 9 7 16 7 11 17 20 12 14 17 14 13 11 10 11 12 12 11 10 11 10 9 8 9 9 9 11 11 9 8 8 7 6 6 5 5 7
7 9 10 10 10 8 8 4 7 7 9 18 12 11 11 14 17 18 17 16 15 16 15 14 12 12 11 9 8 9 10 9 11 10 9 8 7 6 5 5 5 6 6 7
3 8 7 11 10 11 10 9 9 4 7 19 13 7 12 5 11 14 15 16 14 15 15 14 13 12 12 11 10 10 10 10 8 10 9 7 6 7 6 5 5 4 4 6
4 4 11 12 11 11 9 3 20 17 4 9 10 16 9 7 6 8 16 15 13 15 15 14 16 15 13 11 10 12 11 10 9 9 8 7 7 7 6 6 4 3 4 6
5 4 8 14 24 24 17 4 22 19 16 10 11 10 3 7 7 7 6 12 13 15 14 16 15 17 16 12 11 11 10 10 8 9 9 8 8 6 3 3 4 4 4 6
3 4 3 21 26 21 8 6 18 16 15 11 8 4 1 7 7 5 2 9 11 18 16 15 16 17 14 14 12 11 11 9 8 8 10 10 7 4 4 4 3 3 4 4
6 1 15 20 15 10 4 6 12 10 16 14 8 9 7 6 7 8 7 11 15 14 13 15 17 17 14 14 12 14 12 10 11 11 9 7 8 4 3 5 4 3 1 4
3 4 4 4 4 4 6 7 6 3 12 13 8 8 8 8 8 8 2 8 13 12 14 13 14 16 16 13 17 14 13 11 10 10 9 8 9 7 4 3 1 3 3 2
1 3 5 7 11 4 1 13 8 5 5 13 7 8 7 8 8 7 5 6 8 14 14 9 7 11 15 13 15 15 12 9 9 8 7 7 4 3 2 3 3 4 4 5
6 8 9 11 7 8 10 11 2 12 13 8 8 7 5 5 8 7 5 7 12 13 14 17 17 16 13 15 7 11 11 6 6 3 4 6 4 2 5 3 6 5 3 4
8 7 6 8 6 3 9 20 14 10 4 5 8 5 5 5 4 9 9 7 10 13 18 17 20 21 19 20 22 17 11 8 8 6 4 5 5 3 6 3 7 8 7 5
8 11 13 8 13 17 20 26 23 12 8 8 7 2 5 4 5 10 11 12 6 11 16 18 19 18 19 14 13 15 10 6 7 5 4 4 4 5 5 1 3 1 4 6
15 3 8 17 10 14 16 21 18 15 7 4 6 4 4 6 10 10 9 7 7 8 8 10 13 11 7 9 12 11 11 12 6 5 5 5 5 5 4 4 4 4 8 10
6 9 6 6 6 7 7 4 4 5 5 5 7 6 9 11 8 6 6 5 5 8 9 10 10 8 8 10 12 11 9 8 5 4 4 6 5 5 5 5 4 5 3 3
8 8 6 6 7 2 3 6 6 7 7 4 11 12 10 10 8 7 5 4 4 4 6 8 11 11 10 11 12 9 7 9 6 4 3 5 5 4 2 1 3 2 3 5
4 6 4 6 5 6 6 6 7 8 3 18 14 11 12 8 6 6 5 5 6 7 9 11 10 11 12 11 10 7 5 5 5 5 5 5 4 3 2 3 2 0 4 4
7 5 5 7 6 6 7 7 8 15 10 10 9 7 9 8 6 7 6 7 8 7 6 8 8 7 8 8 8 6 5 5 5 3 4 3 3 4 3 3 2 2 4 4
5 5 5 7 8 7 8 7 1 14 15 8 9 10 8 8 10 8 8 9 8 9 5 9 11 6 7 8 8 5 6 6 5 4 5 6 4 1 1 3 1 2 4 5
5 4 6 8 10 9 8 8 6 17 21 16 13 14 11 11 11 10 9 8 5 5 7 9 9 7 6 7 8 5 4 5 6 5 4 3 2 2 3 4 3 4 5 3
8 6 2 5 5 6 7 7 8 17 15 14 14 14 13 11 11 12 12 8 5 7 9 11 9 8 7 6 6 4 1 4 6 6 5 3 4 4 2 3 1 1 3 2
4 4 2 4 6 4 6 5 9 12 15 13 12 14 13 11 10 7 7 10 8 11 7 7 8 13 10 15 5 2 4 6 7 5 5 4 3 2 2 3 3 3 4 3
2 3 2 2 5 6 2 8 9 12 15 15 15 14 13 10 9 9 7 8 8 10 8 8 11 16 11 5 3 3 3 5 6 6 5 3 4 4 3 2 4 2 3 3
4 2 3 3 5 4 5 3 9 10 9 12 13 15 13 10 8 7 7 13 14 12 8 8 9 12 8 4 3 4 4 5 6 6 5 6 4 2 1 3 3 3 3 4
3 4 4 4 4 4 5 4 5 7 8 14 13 12 11 9 9 9 10 11 17 13 7 11 12 11 5 4 3 4 4 4 5 6 5 4 3 4 4 4 4 3 1 4
5 4 2 1 2 2 3 5 2 3 2 7 9 10 7 7 9 12 11 12 12 11 6 6 6 5 5 4 4 5 4 4 4 4 4 3 5 4 4 5 4 2 2 4
5 4 2 1 2 4 3 3 6 5 14 9 12 4 8 8 9 12 13 13 11 10 6 7 7 7 5 5 4 5 5 4 6 5 4 3 3 4 3 2 1 1 4 5
Wind_Direction
281 279 289 284 289 237 200 213 218 192 135 156 156 199 238 178 150 144 150 151 144 133 124 118 116 121 122 124 135 135 135 147 166 129 106 99 92 93 100 91 113 109 107 76
292 301 300 299 295 296 236 211 227 156 200 197 186 209 217 180 168 158 164 164 154 142 135 137 136 131 132 134 138 127 128 126 113 107 107 107 108 109 105 114 104 118 104 108
270 278 301 302 271 285 283 277 201 217 233 158 180 203 209 181 174 173 176 174 165 164 158 150 149 142 144 137 121 119 124 117 119 119 114 115 122 122 123 114 103 95 92 113
261 325 253 259 263 267 266 274 287 288 216 169 183 142 64 157 167 176 181 185 169 165 161 153 147 140 134 131 128 122 125 123 119 115 115 124 110 112 108 109 111 118 101 127
122 292 276 278 14 342 343 357 12 332 248 128 107 77 33 60 107 201 194 187 178 166 159 153 151 141 137 131 124 128 135 134 132 132 130 131 130 125 135 128 131 142 142 114
29 113 272 1 331 315 303 73 349 348 10 43 72 73 320 33 26 20 181 175 168 156 151 147 147 141 141 140 135 137 137 137 137 137 140 129 119 120 113 124 143 136 151 145
357 1 337 357 345 325 53 320 322 331 4 18 47 150 99 67 23 356 275 169 147 150 149 146 140 138 143 143 141 144 135 129 126 117 113 115 111 119 125 111 128 125 147 165
79 216 249 2 354 41 248 249 262 324 351 343 5 17 16 41 23 344 332 142 143 143 143 143 140 139 138 146 140 125 125 119 111 113 115 118 125 137 139 133 155 216 218 273
322 221 214 347 277 232 219 261 256 268 314 317 22 353 359 360 12 346 95 130 141 140 136 143 144 143 138 135 130 124 120 125 112 117 146 162 139 155 147 168 266 329 274 350
283 250 272 253 265 295 352 271 288 260 265 316 7 358 355 345 333 2 345 130 112 128 124 104 98 95 120 129 123 116 113 126 133 140 126 127 131 132 163 153 124 104 100 104
213 218 271 256 245 271 316 318 211 308 310 337 334 331 350 326 342 11 34 94 136 121 109 104 107 102 101 89 24 96 107 98 74 62 124 102 68 128 143 143 156 154 154 142
224 216 192 236 187 139 16 305 303 281 231 288 307 317 339 60 46 51 36 68 73 115 125 133 131 133 133 136 129 153 176 168 159 153 162 132 142 111 15 156 134 122 153 152
220 204 212 218 200 172 176 222 260 246 246 217 233 303 350 83 64 65 54 58 119 139 147 142 149 154 153 159 151 177 166 112 142 144 165 162 158 164 180 258 52 167 205 242
245 210 238 235 254 198 214 233 241 232 216 217 249 166 100 100 71 67 67 70 106 126 151 160 159 153 166 146 156 153 135 140 141 164 171 169 175 187 163 183 203 241 249 236
260 238 229 235 259 261 239 256 289 287 272 246 250 154 90 89 88 87 101 113 139 156 158 153 156 153 140 139 137 134 129 143 164 156 195 183 167 172 179 184 200 226 236 251
272 288 309 322 308 279 39 329 323 269 240 208 79 73 78 93 93 96 103 116 115 118 125 134 141 140 147 140 130 123 131 157 143 161 167 121 130 139 208 226 211 199 196 233
224 281 327 315 312 306 299 281 265 267 237 109 113 115 109 91 73 71 60 85 106 123 131 135 134 140 138 129 128 136 132 132 151 156 132 139 156 177 169 152 115 264 259 254
197 187 214 240 258 265 277 268 11 326 104 115 110 124 99 109 121 99 90 98 102 89 93 105 109 106 109 123 128 125 121 130 120 119 124 109 150 152 157 149 216 254 270 293
199 213 239 248 243 234 241 257 182 112 62 22 109 108 118 113 104 98 92 91 86 90 69 93 98 104 111 118 117 122 130 129 105 100 134 126 100 155 344 148 152 281 290 289
181 210 235 253 222 216 216 233 134 138 154 183 132 124 127 123 119 118 114 102 96 109 103 94 88 72 81 129 109 115 138 145 129 148 132 123 184 227 190 191 240 277 292 302
174 193 249 315 248 214 204 221 141 144 149 139 138 140 138 134 133 134 125 127 147 127 115 101 95 72 54 2 342 335 181 148 134 142 140 183 178 165 278 200 228 284 330 342
149 108 31 349 334 283 206 221 145 135 133 132 129 129 129 137 142 140 147 153 161 149 129 127 132 158 187 193 198 196 312 147 147 147 155 200 187 182 141 61 342 313 336 279
121 104 5 31 320 314 319 121 148 147 147 146 151 152 151 156 161 150 152 167 154 160 156 157 173 184 218 262 207 227 269 178 149 150 157 146 127 110 76 326 297 323 325 342
112 136 254 275 290 316 330 243 164 165 146 151 152 154 150 153 162 167 133 156 156 167 174 176 192 203 221 224 193 279 146 136 126 112 120 147 134 136 261 265 294 302 317 41
208 237 265 273 280 289 296 271 159 173 158 145 157 156 160 168 159 163 147 161 156 172 178 192 195 196 206 200 172 172 120 119 130 139 154 166 171 206 228 265 278 267 234 138
223 237 264 343 321 356 354 22 338 352 184 149 161 153 161 160 156 141 150 153 164 179 189 175 191 190 196 181 167 160 143 131 135 149 159 205 199 211 241 265 273 252 191 122
223 230 261 252 325 314 71 115 77 75 77 1 336 261 164 161 157 147 150 154 167 181 192 169 175 183 179 172 183 166 165 161 170 171 193 231 244 245 248 200 246 278 124 123